Iwojima, Japan

1:42 PM JST on April 23, 2018 (GMT +0900)
Iwojima Aero

Weather History for RJAW - November, 2012

Change the Weather History Date:

Tuesday, November 27, 2012

  Actual Average Record
Temperature  
Mean Temperature 74 °F -  
Max Temperature 77 °F 72 °F 80 °F (2000)
Min Temperature 71 °F 68 °F 69 °F (2001)
Cooling Degree Days 9    
Growing Degree Days 24 (Base 50)    
Moisture  
Dew Point 65 °F    
Average Humidity 72    
Maximum Humidity 83    
Minimum Humidity 61    
Precipitation  
Precipitation 0.00 in - - ()
Sea Level Pressure  
Sea Level Pressure 29.92 in    
Wind  
Wind Speed 8 mph ()    
Max Wind Speed 16 mph    
Max Gust Speed 28 mph    
Visibility 6.2 miles    
Events      
Averages and records for this station are not official NWS values.
T = Trace of Precipitation, MM = Missing Value Source: Averaged Metar Reports

Daily Weather History Graph

Daily Weather History Graph

Search for Another Location

Airport or City:

Astronomy

Nov. 27, 2012 Rise Set
Actual Time 6:59 AM ChST 5:45 PM ChST
Civil Twilight 6:34 AM ChST 6:09 PM ChST
Nautical Twilight 6:06 AM ChST 6:37 PM ChST
Astronomical Twilight 5:39 AM ChST 7:05 PM ChST
Moon 4:47 PM ChST (11/27) 5:34 AM ChST (11/27)
Length of Visible Light 11h 34m
Length of Day
10h 45m
Waxing Gibbous, 98% of the Moon is Illuminated
Nov 27
Waxing Gibbous
Nov 29
Full
Dec 7
Last Quarter
Dec 13
New
Dec 20
First Quarter

Hourly Weather History & Observations

Time (ChST) Temp. Dew Point Humidity Pressure Visibility Wind Dir Wind Speed Gust Speed Precip Events Conditions
1:00 AM 73.4 °F 64.4 °F 73% 29.92 in 6.2 mi West 4.6 mph - N/A   Mostly Cloudy
4:00 AM 73.4 °F 66.2 °F 78% 29.89 in 6.2 mi NNW 6.9 mph - N/A   Mostly Cloudy
6:00 AM 71.6 °F 64.4 °F 78% 29.92 in 6.2 mi North 3.5 mph - N/A   Mostly Cloudy
7:00 AM 71.6 °F 62.6 °F 73% 29.92 in 6.2 mi North 5.8 mph - N/A   Scattered Clouds
8:00 AM 71.6 °F 64.4 °F 78% 29.92 in 6.2 mi North 5.8 mph - N/A   Partly Cloudy
9:00 AM 75.2 °F 64.4 °F 69% 29.95 in 6.2 mi NW 5.8 mph - N/A   Partly Cloudy
10:00 AM 77.0 °F 62.6 °F 61% 29.95 in 6.2 mi NW 9.2 mph - N/A   Partly Cloudy
11:00 AM 77.0 °F 62.6 °F 61% 29.95 in 6.2 mi NW 6.9 mph - N/A   Partly Cloudy
12:00 PM 77.0 °F 64.4 °F 65% 29.92 in 6.2 mi NW 11.5 mph - N/A   Partly Cloudy
1:00 PM 77.0 °F 64.4 °F 65% 29.92 in 6.2 mi NW 13.8 mph - N/A   Partly Cloudy
2:00 PM 77.0 °F 66.2 °F 69% 29.89 in 6.2 mi NW 15.0 mph - N/A   Partly Cloudy
3:00 PM 77.0 °F 66.2 °F 69% 29.89 in 6.2 mi NW 16.1 mph - N/A   Partly Cloudy
4:00 PM 77.0 °F 66.2 °F 69% 29.89 in 6.2 mi NW 15.0 mph - N/A   Scattered Clouds
4:40 PM 77.0 °F 68.0 °F 74% 29.89 in 6.2 mi NW 13.8 mph - N/A   Mostly Cloudy
5:00 PM 75.2 °F 66.2 °F 73% 29.89 in 6.2 mi NW 12.7 mph - N/A   Mostly Cloudy
6:00 PM 75.2 °F 66.2 °F 73% 29.89 in 6.2 mi NNW 12.7 mph - N/A   Mostly Cloudy
6:26 PM 75.2 °F 66.2 °F 73% 29.92 in 6.2 mi NNW 12.7 mph - N/A   Scattered Clouds
7:00 PM 75.2 °F 68.0 °F 78% 29.92 in 6.2 mi NNW 16.1 mph 27.6 mph N/A   Scattered Clouds
7:14 PM 73.4 °F 68.0 °F 83% 29.92 in 6.2 mi North 16.1 mph - N/A   Mostly Cloudy
10:00 PM 73.4 °F 66.2 °F 78% 29.95 in 6.2 mi NNE 16.1 mph - N/A   Mostly Cloudy